Wind_Speed
14 16 16 15 15 17 7 5 6 7 8 8 9 8 9 8 7 7 7 5 5 4 3 3 4 5 6 7 7 8 8 8 8 8 9 9 9 9 9 9 9 9 9 9 10 10 10 11 11
13 14 14 14 16 13 2 1 2 3 5 6 7 7 7 7 7 7 6 5 3 2 2 2 2 4 5 6 7 7 8 8 8 9 9 9 9 9 9 8 8 8 9 9 10 10 11 11 11
11 11 10 12 14 8 3 1 1 1 2 3 5 6 6 6 7 6 6 5 4 3 2 1 1 2 4 5 6 7 8 8 9 9 9 9 9 9 9 8 8 8 8 9 9 10 11 11 11
9 10 9 11 7 4 4 1 3 3 2 2 4 5 5 6 6 6 6 6 5 5 4 4 3 2 3 4 5 6 8 8 9 9 9 9 9 9 9 8 8 9 9 9 9 10 11 11 12
9 9 8 5 3 4 5 2 1 3 5 4 6 5 6 6 7 8 8 8 7 7 7 6 6 5 5 5 6 6 7 8 9 9 10 9 9 9 9 9 9 9 9 10 10 10 11 11 12
10 11 8 1 0 5 6 3 4 6 6 6 7 8 8 9 9 10 11 11 10 9 10 10 10 9 9 8 8 8 9 9 10 10 11 10 10 10 10 10 10 10 10 10 11 11 11 12 12
10 11 8 2 4 8 9 6 6 8 8 6 7 9 9 11 12 13 14 15 14 13 13 13 14 13 13 12 12 12 12 12 12 12 12 12 12 12 11 11 11 11 12 12 12 12 12 12 12
9 9 9 1 6 9 11 8 9 9 9 8 8 10 8 10 12 14 15 16 17 16 16 17 16 16 16 15 15 15 14 14 15 15 15 15 14 14 13 13 13 13 13 14 14 14 14 14 14
10 10 8 5 8 10 13 10 11 11 11 10 9 10 9 10 11 12 14 15 17 17 17 17 17 17 17 16 16 16 16 16 17 17 17 17 16 15 15 15 14 15 15 16 16 16 16 16 15
11 12 7 9 12 15 13 12 11 10 10 11 11 10 10 10 10 11 13 14 15 16 16 16 16 16 16 16 17 17 17 18 18 18 19 18 18 17 17 17 17 17 17 17 18 18 18 18 17
14 14 13 13 15 15 13 11 11 9 8 12 12 13 11 12 12 12 13 14 14 15 16 16 16 16 17 18 18 19 19 20 20 20 21 21 21 20 19 19 20 20 20 20 20 20 21 20 20
19 18 19 18 17 16 15 14 13 13 15 17 15 16 16 15 15 15 16 16 16 17 17 18 19 19 20 21 21 22 22 22 23 23 24 24 24 24 23 23 23 23 24 24 23 23 23 23 23
23 22 22 21 20 19 18 18 17 19 20 20 19 20 20 20 20 21 21 21 22 22 22 23 23 24 25 25 26 26 26 26 26 26 27 28 28 28 27 27 27 27 27 27 27 27 26 26 26
27 27 26 24 24 24 24 22 21 22 26 25 24 25 25 25 26 26 27 27 28 28 28 28 28 29 29 30 31 31 31 31 31 31 31 32 33 33 33 33 33 33 32 31 31 31 31 30 30
30 29 27 27 28 29 29 27 24 24 30 30 29 30 30 30 31 32 33 32 33 34 33 33 33 34 34 35 35 35 35 36 35 36 35 35 36 37 37 37 37 37 37 36 36 35 35 35 34
31 31 30 27 29 31 33 31 24 26 34 35 34 33 34 34 35 36 38 37 37 39 38 38 38 39 39 39 39 40 40 40 40 40 40 39 39 41 41 41 41 41 41 40 39 38 38 38 37
28 28 27 22 27 35 37 34 26 30 36 40 39 39 38 40 41 41 41 42 42 42 43 43 43 44 44 44 43 44 43 43 43 43 43 43 42 43 44 44 43 44 44 43 43 41 40 40 40
18 16 16 17 23 31 36 34 28 27 38 43 43 44 45 45 45 46 45 46 45 45 46 47 47 48 48 47 46 45 45 45 45 45 45 44 45 44 44 45 45 46 46 45 45 43 43 43 42
24 24 25 25 26 33 37 36 31 28 36 44 46 46 46 46 46 46 46 46 46 48 47 47 47 48 48 47 46 45 45 45 45 44 45 45 46 46 45 45 46 46 46 45 45 44 44 44 42
16 19 21 21 22 29 32 31 26 26 32 39 42 42 42 42 42 41 41 42 43 44 44 44 45 45 46 46 45 45 45 45 45 45 45 46 46 46 46 47 48 47 46 45 44 44 43 42 41
12 13 16 20 23 25 26 26 24 24 29 34 37 39 39 38 38 38 38 39 40 40 41 42 43 44 45 45 46 46 46 45 45 46 47 48 47 47 48 49 47 47 45 43 42 42 42 41 41
14 16 22 24 24 25 24 26 22 21 28 35 39 39 37 35 34 36 38 39 40 40 41 41 42 43 44 45 46 46 47 47 47 48 49 50 51 50 50 49 48 47 46 45 44 43 43 43 42
18 21 24 23 23 23 21 23 21 18 25 33 37 37 36 37 37 37 37 38 38 38 39 40 40 42 44 45 46 47 47 48 48 49 50 51 52 52 52 51 50 49 47 46 45 44 44 44 42
17 19 19 18 17 18 17 19 18 21 26 31 36 40 41 40 38 37 36 36 36 36 37 37 38 39 41 43 44 46 47 49 49 50 51 51 52 53 53 52 51 50 48 47 45 45 45 44 43
15 15 14 11 9 13 15 17 18 25 28 31 35 38 39 38 37 36 35 34 34 34 35 36 36 37 39 40 43 45 47 49 50 51 52 52 53 53 53 53 52 50 49 48 46 45 44 43 42
13 13 13 14 12 14 16 18 23 30 32 31 31 33 36 37 38 37 36 35 34 34 34 35 36 37 38 40 42 44 46 48 49 51 52 53 54 54 54 55 54 52 51 50 48 46 45 43 41
13 13 14 16 16 15 12 13 23 29 33 34 33 34 35 37 38 38 38 37 36 36 36 36 37 37 39 40 41 42 44 45 47 49 51 52 53 54 54 53 53 52 51 51 50 47 44 42 40
14 15 16 17 18 17 14 13 21 30 35 39 40 39 39 39 39 39 39 39 38 38 38 38 38 38 39 39 40 41 42 43 45 47 49 50 51 51 53 53 53 52 50 49 47 45 43 40 39
16 18 19 21 20 21 21 18 20 30 34 36 38 38 38 38 38 38 39 39 39 40 40 40 40 39 39 39 40 40 41 42 43 44 46 45 44 44 45 46 48 49 48 46 45 44 42 39 36
15 18 19 21 21 22 24 21 22 28 32 35 37 38 37 37 37 36 37 38 38 39 39 39 40 39 38 38 39 39 39 40 41 41 41 40 39 39 40 40 41 42 41 40 40 40 39 37 36
Wind_Direction
104 101 102 100 89 73 73 151 160 154 148 141 141 149 151 142 133 138 140 141 134 124 100 73 57 47 42 37 30 22 17 14 14 14 14 13 13 12 12 14 16 16 16 14 11 8 5 3 2
112 110 105 93 77 80 39 197 149 128 141 150 157 163 162 152 153 152 159 161 162 159 132 92 55 39 34 31 26 19 13 9 8 6 6 6 5 3 2 3 4 6 7 8 7 5 2 359 356
124 123 110 81 49 50 345 301 41 87 160 174 182 180 177 176 174 176 181 185 194 214 223 246 348 14 20 21 17 11 5 3 2 1 0 359 358 355 353 354 354 355 356 358 359 0 359 357 353
140 127 110 68 46 2 293 315 44 358 289 245 227 211 208 207 208 207 210 212 220 238 252 265 287 320 349 359 1 359 357 356 355 353 352 352 351 351 346 343 344 345 346 348 351 353 354 353 351
157 148 99 39 51 313 292 316 23 280 276 269 264 252 245 240 240 239 241 240 242 254 265 275 286 298 312 325 331 336 339 341 341 341 342 341 342 341 340 335 332 333 334 336 339 341 345 347 346
168 160 111 304 287 290 282 285 286 281 281 273 276 270 266 263 262 262 264 264 262 264 272 279 284 290 296 304 310 313 316 317 319 322 325 325 326 327 327 326 324 321 322 324 327 329 333 338 339
181 171 133 336 317 286 269 265 279 286 271 274 279 275 270 269 271 270 271 273 273 273 277 281 285 289 292 295 299 301 302 304 306 310 312 313 315 316 317 316 314 313 313 314 317 319 323 327 330
191 185 149 174 272 272 270 259 256 266 275 278 274 276 270 272 273 274 275 277 279 279 281 284 287 290 292 294 296 297 297 299 300 302 304 305 308 310 310 309 308 307 307 309 309 310 311 315 319
199 189 168 218 232 250 260 257 262 264 276 281 279 278 271 269 272 274 277 279 282 283 284 286 290 291 293 296 298 298 297 299 300 301 301 302 303 304 304 304 305 305 303 304 305 305 304 306 308
210 200 192 247 233 242 258 258 267 274 287 286 283 277 273 269 269 273 277 281 284 287 288 289 292 294 296 298 299 299 299 300 301 302 300 300 301 301 300 301 302 301 300 299 299 300 299 300 300
222 217 214 239 245 249 255 256 262 267 272 273 276 279 276 275 274 276 280 283 286 290 292 294 296 297 299 300 300 298 298 300 302 302 301 301 301 300 297 297 298 297 297 297 296 296 294 294 294
234 231 236 244 250 252 253 254 255 255 250 261 268 276 278 278 280 282 283 285 287 290 293 295 297 297 298 298 298 298 298 298 299 300 300 300 300 300 297 295 294 294 294 295 295 295 293 292 291
241 242 246 251 255 258 259 259 261 263 265 266 268 271 275 276 279 282 284 286 288 289 290 292 294 295 295 296 296 297 297 297 297 297 297 298 298 298 297 296 295 294 294 293 293 293 292 290 289
244 247 251 257 262 264 264 263 267 274 272 270 271 272 274 277 280 281 282 284 286 286 287 289 291 292 293 293 294 295 295 295 296 296 296 297 297 297 297 296 296 296 294 293 292 291 290 289 287
249 254 258 263 268 270 268 267 270 272 270 271 273 275 275 277 279 281 281 283 285 285 286 287 288 289 290 291 292 293 293 293 294 295 294 294 295 295 295 295 295 295 294 293 292 292 291 289 288
255 258 262 268 273 269 268 269 273 270 269 272 274 276 278 278 279 281 282 282 284 285 286 287 288 288 289 289 290 290 291 292 292 292 293 293 292 292 292 292 293 294 293 292 291 291 291 290 288
260 265 269 271 269 270 270 269 265 267 271 274 277 278 279 281 281 281 282 283 283 284 286 287 288 288 287 287 288 288 289 289 289 290 290 290 291 290 290 290 290 291 291 291 290 289 288 289 289
247 253 261 252 255 271 274 274 268 264 273 275 276 278 279 280 281 282 282 283 282 283 284 285 286 286 286 286 286 286 286 286 286 286 286 286 287 287 288 289 288 288 289 289 289 287 287 287 287
245 239 232 236 247 261 269 276 277 263 265 273 277 280 282 282 282 282 282 281 282 283 283 283 282 282 283 283 283 282 283 283 282 283 283 284 285 287 286 286 285 285 285 286 287 286 288 288 288
254 253 252 257 265 270 278 284 282 274 272 276 282 286 287 285 284 284 282 281 281 281 281 281 280 280 280 280 280 279 279 280 282 283 284 284 285 286 286 285 285 284 284 285 285 287 288 287 287
264 267 260 253 256 270 284 290 295 293 286 285 288 289 289 289 289 286 284 283 282 281 280 280 279 279 279 278 278 278 278 279 279 280 280 281 281 283 284 283 284 286 286 286 287 288 287 285 285
261 259 262 269 276 281 282 282 282 282 284 285 286 288 290 294 294 289 287 285 283 282 281 279 279 278 278 278 278 278 278 278 278 278 279 280 281 281 281 284 285 285 284 286 286 286 286 285 285
266 266 275 284 287 288 290 289 291 281 272 275 283 289 293 297 297 294 290 287 285 283 281 280 279 278 278 278 278 278 278 278 278 277 278 279 280 280 281 282 283 284 285 285 284 282 283 284 283
283 280 284 293 302 302 293 279 280 267 262 270 280 288 292 294 295 294 292 290 287 285 283 282 280 279 278 278 278 278 278 278 278 278 277 278 278 278 279 279 280 282 283 284 283 281 281 281 281
294 295 295 294 294 295 288 290 290 283 283 283 285 288 292 295 297 296 294 292 289 287 285 284 283 281 280 279 279 279 279 279 279 278 278 277 277 277 277 278 278 278 279 280 280 280 281 280 279
299 300 301 294 282 272 282 298 291 288 289 290 288 290 293 294 296 296 295 292 291 290 288 286 284 283 283 282 282 281 280 280 280 279 279 278 277 276 275 275 274 275 276 277 277 277 278 276 275
308 306 301 300 301 299 300 294 290 288 291 295 297 297 296 296 296 295 295 293 292 290 288 287 286 285 285 284 285 284 284 283 282 281 280 280 278 276 274 273 272 271 272 273 274 274 275 272 269
316 317 316 315 312 305 295 284 284 288 292 297 302 303 302 301 299 297 295 294 292 290 288 287 287 286 286 286 286 286 287 286 285 284 283 282 280 276 273 271 270 270 270 271 272 271 271 267 264
304 307 306 305 306 304 301 295 284 286 291 297 300 302 303 303 303 301 298 296 294 292 290 289 288 287 287 287 287 288 289 289 288 287 286 285 282 279 275 272 269 269 269 268 268 267 266 262 261
297 302 306 308 308 305 304 311 300 297 299 302 303 306 308 309 306 303 299 297 296 294 293 291 289 289 289 289 290 291 292 292 292 291 290 287 284 281 278 273 271 268 267 267 266 265 259 256 256
Height
5924 5924 5925 5926 5925 5925 5927 5927 5926 5925 5926 5926 5926 5926 5926 5927 5928 5930 5929 5928 5929 5929 5928 5928 5928 5928 5927 5927 5926 5926 5925 5924 5923 5922 5921 5920 5918 5917 5916 5914 5913 5912 5911 5909 5908 5907 5905 5904 5903
5926 5927 5928 5927 5926 5927 5929 5928 5928 5928 5928 5928 5928 5928 5928 5928 5928 5929 5928 5929 5929 5929 5929 5929 5929 5928 5928 5928 5927 5927 5926 5925 5924 5923 5922 5921 5919 5918 5916 5915 5914 5913 5912 5910 5909 5908 5906 5905 5904
5927 5928 5929 5927 5928 5929 5930 5930 5929 5929 5929 5929 5929 5929 5930 5930 5930 5930 5929 5929 5930 5930 5929 5929 5929 5929 5928 5928 5928 5927 5927 5926 5925 5924 5923 5921 5920 5918 5917 5916 5915 5913 5912 5911 5910 5909 5907 5906 5904
5928 5929 5930 5931 5932 5933 5932 5931 5931 5931 5930 5930 5930 5930 5930 5931 5931 5931 5930 5930 5930 5930 5929 5929 5929 5929 5929 5928 5928 5927 5927 5926 5925 5924 5923 5922 5920 5919 5918 5916 5915 5914 5913 5912 5910 5909 5908 5906 5905
5928 5930 5930 5932 5933 5934 5933 5932 5932 5930 5930 5930 5930 5931 5931 5931 5931 5931 5931 5930 5930 5930 5930 5929 5929 5929 5929 5928 5928 5927 5926 5926 5925 5924 5923 5922 5920 5919 5918 5916 5915 5914 5913 5912 5910 5909 5908 5906 5905
5927 5929 5930 5932 5933 5934 5933 5932 5932 5931 5930 5930 5930 5930 5930 5931 5931 5931 5931 5930 5930 5930 5929 5929 5929 5928 5928 5928 5927 5926 5926 5925 5924 5923 5922 5921 5920 5919 5917 5916 5915 5913 5912 5911 5910 5909 5908 5906 5905
5927 5928 5929 5932 5933 5933 5933 5932 5931 5930 5930 5930 5929 5928 5930 5930 5930 5930 5930 5930 5930 5930 5929 5929 5928 5928 5927 5927 5926 5925 5925 5924 5923 5922 5921 5920 5919 5917 5916 5915 5914 5913 5911 5910 5909 5908 5907 5906 5904
5925 5928 5928 5932 5933 5933 5932 5932 5930 5929 5928 5929 5929 5928 5929 5929 5929 5929 5929 5928 5928 5928 5928 5927 5927 5927 5926 5925 5924 5924 5923 5922 5921 5920 5919 5918 5917 5916 5914 5913 5912 5911 5910 5909 5908 5907 5906 5905 5903
5924 5927 5928 5930 5931 5930 5929 5929 5928 5929 5928 5928 5927 5927 5927 5927 5927 5927 5927 5926 5926 5926 5927 5926 5926 5925 5924 5923 5922 5921 5921 5920 5919 5918 5917 5916 5915 5914 5913 5911 5910 5909 5908 5907 5906 5905 5904 5903 5902
5923 5925 5926 5927 5927 5927 5927 5928 5927 5928 5927 5927 5926 5926 5925 5925 5925 5925 5924 5924 5924 5923 5924 5924 5924 5923 5922 5921 5920 5919 5918 5918 5917 5916 5915 5914 5913 5912 5911 5909 5908 5907 5906 5905 5904 5903 5902 5901 5900
5920 5922 5922 5924 5924 5925 5926 5926 5926 5927 5927 5924 5924 5923 5923 5923 5923 5922 5922 5922 5922 5921 5921 5921 5921 5920 5919 5919 5918 5917 5916 5915 5914 5913 5912 5911 5910 5909 5908 5907 5905 5904 5903 5902 5901 5900 5899 5898 5897
5917 5918 5919 5921 5922 5923 5923 5924 5924 5925 5924 5923 5922 5921 5921 5921 5920 5920 5920 5919 5919 5919 5918 5918 5917 5917 5916 5915 5914 5913 5913 5912 5911 5909 5908 5907 5906 5905 5904 5903 5902 5901 5900 5898 5897 5897 5895 5894 5894
5913 5915 5916 5917 5919 5920 5921 5921 5922 5921 5921 5920 5920 5920 5919 5918 5917 5917 5916 5916 5916 5916 5915 5914 5914 5913 5912 5911 5910 5909 5908 5907 5906 5905 5904 5902 5902 5900 5899 5898 5897 5897 5895 5894 5893 5892 5891 5890 5889
5908 5910 5912 5914 5915 5916 5917 5918 5919 5918 5916 5917 5917 5916 5915 5914 5913 5913 5912 5912 5911 5911 5911 5910 5909 5908 5907 5905 5904 5903 5902 5901 5900 5900 5899 5897 5896 5895 5894 5892 5891 5890 5889 5888 5887 5886 5885 5884 5883
5904 5907 5909 5910 5911 5911 5911 5914 5916 5914 5911 5912 5912 5911 5910 5910 5909 5908 5907 5907 5906 5905 5905 5904 5903 5902 5901 5899 5898 5897 5895 5894 5894 5892 5892 5891 5890 5888 5887 5886 5885 5884 5882 5881 5880 5879 5878 5877 5876
5901 5903 5904 5907 5905 5905 5907 5908 5910 5908 5905 5905 5906 5906 5904 5904 5904 5902 5901 5900 5900 5898 5898 5897 5896 5895 5894 5892 5891 5890 5888 5887 5886 5885 5884 5884 5883 5881 5880 5879 5878 5876 5875 5874 5873 5872 5870 5870 5869
5897 5898 5901 5904 5901 5899 5899 5901 5904 5901 5899 5898 5898 5898 5898 5897 5896 5895 5894 5893 5892 5891 5890 5889 5888 5886 5885 5884 5883 5881 5880 5879 5878 5876 5876 5875 5874 5873 5871 5870 5869 5868 5867 5866 5865 5863 5863 5861 5860
5893 5896 5899 5901 5899 5894 5892 5894 5897 5898 5893 5890 5890 5890 5889 5888 5887 5886 5886 5884 5882 5882 5882 5881 5879 5877 5875 5874 5873 5872 5871 5870 5869 5868 5866 5865 5865 5864 5863 5861 5860 5859 5858 5857 5856 5854 5853 5852 5851
5886 5888 5890 5892 5892 5889 5886 5887 5889 5890 5888 5884 5882 5881 5880 5879 5878 5878 5877 5875 5873 5873 5872 5871 5869 5867 5866 5865 5864 5863 5861 5860 5859 5858 5857 5856 5855 5854 5854 5852 5851 5850 5848 5847 5846 5845 5844 5842 5841
5882 5884 5885 5887 5886 5883 5881 5881 5882 5882 5880 5877 5875 5873 5871 5869 5869 5868 5867 5866 5865 5864 5862 5861 5859 5857 5856 5855 5854 5852 5851 5851 5850 5849 5848 5847 5846 5844 5843 5842 5841 5840 5838 5838 5836 5835 5834 5833 5832
5879 5881 5881 5880 5879 5878 5877 5876 5876 5875 5872 5869 5867 5864 5863 5862 5860 5859 5858 5857 5856 5854 5853 5851 5850 5848 5846 5845 5844 5842 5841 5840 5840 5840 5838 5836 5835 5835 5833 5832 5830 5829 5828 5827 5827 5826 5825 5824 5823
5876 5875 5873 5873 5874 5873 5873 5871 5873 5872 5867 5862 5858 5856 5854 5853 5851 5850 5849 5847 5846 5845 5843 5842 5840 5838 5836 5835 5833 5832 5831 5830 5830 5829 5827 5826 5824 5824 5823 5821 5820 5819 5818 5818 5817 5816 5815 5814 5814
5870 5869 5868 5869 5868 5868 5868 5866 5867 5867 5861 5854 5851 5849 5848 5845 5844 5842 5840 5838 5837 5835 5834 5832 5831 5829 5826 5825 5823 5821 5820 5819 5819 5818 5816 5815 5813 5812 5812 5811 5809 5809 5808 5807 5807 5806 5805 5805 5804
5865 5865 5865 5864 5864 5864 5864 5862 5861 5857 5854 5851 5848 5846 5843 5841 5838 5835 5833 5830 5828 5826 5824 5823 5821 5819 5817 5815 5813 5811 5809 5808 5807 5806 5804 5803 5802 5801 5800 5799 5798 5798 5797 5797 5796 5795 5794 5794 5794
5862 5862 5862 5862 5863 5861 5858 5856 5856 5850 5850 5848 5845 5841 5837 5834 5831 5828 5825 5823 5820 5818 5816 5814 5812 5810 5808 5806 5803 5801 5799 5797 5795 5794 5792 5791 5790 5789 5788 5787 5786 5786 5786 5786 5786 5785 5784 5783 5784
5859 5859 5859 5858 5858 5857 5857 5856 5853 5847 5844 5843 5840 5836 5832 5828 5825 5821 5818 5815 5813 5811 5808 5806 5803 5801 5799 5796 5794 5791 5788 5786 5783 5781 5779 5777 5776 5775 5775 5774 5773 5774 5774 5774 5774 5774 5773 5773 5773
5856 5856 5855 5854 5853 5852 5854 5854 5847 5841 5837 5835 5833 5830 5826 5822 5818 5814 5810 5807 5805 5802 5800 5797 5795 5792 5789 5787 5784 5781 5778 5774 5771 5768 5766 5763 5761 5760 5759 5759 5759 5759 5760 5761 5761 5762 5762 5762 5762
5854 5853 5851 5850 5848 5847 5848 5848 5844 5836 5832 5828 5825 5822 5818 5814 5810 5806 5802 5799 5796 5794 5791 5788 5786 5783 5780 5777 5774 5771 5767 5763 5760 5756 5753 5749 5746 5744 5743 5745 5744 5744 5746 5748 5749 5750 5750 5751 5752
5853 5851 5849 5847 5845 5843 5841 5843 5839 5833 5828 5824 5820 5815 5811 5807 5802 5798 5794 5791 5787 5784 5781 5779 5776 5773 5771 5767 5764 5760 5757 5752 5748 5744 5740 5737 5733 5730 5729 5730 5730 5731 5733 5736 5737 5738 5740 5741 5743
5849 5848 5845 5843 5841 5838 5835 5837 5832 5827 5822 5817 5812 5808 5803 5799 5795 5791 5787 5783 5779 5775 5772 5769 5766 5764 5761 5758 5754 5750 5746 5742 5737 5733 5729 5725 5722 5719 5717 5717 5718 5720 5721 5724 5725 5727 5729 5731 5733